sat.trackr.live / text

‹ back to catalog

STARLINK-2563

NORAD 48410 · 2021-038BK

PAYLOAD ACTIVE UNKNOWN

§ Identity

Operator
Country
US
Launch date
2021-05-04
Launch site
AFETR
Launch vehicle
Mass (kg)
RCS (m²)

Purposes: comms

External: N2YO · Heavens-Above · Gunter

§ Orbital elements

Epoch: 2026-09-20T03:39:17.895744Z

Period
94.01 min
Inclination
53.1580°
Eccentricity
0.0001328
Mean motion
15.31701628 rev/d
Perigee alt
469.8 km
Apogee alt
471.6 km
Semi-major
6,848.9 km
B*
4.6892e-5
RAAN
111.5830°
Arg perigee
88.8948°
Mean anomaly
271.2206°
Rev number
29,774

§ Raw data

STARLINK-25631 48410U 21038BK  26263.15229046  .00001090  00000+0  46892-4 0  99912 48410  53.1580 111.5830 0001328  88.8948 271.2206 15.31701628297742

JSON: /api/v1/satellites/48410 · /tle

For live sub-satellite position, see the globe view (requires WebGL).

§ Visibility from observer

Set your observer location to see the next 7 days of passes ≥ 10°. The values pass through the URL so the page stays shareable.

No JS? Fill the form by hand. The geolocation button needs JavaScript.